User: anonymous   Login
Location: Hysolar-Haus
(48.7436°N, 9.0965°E)
Time: 18:02:25
(UTC+00:00)
Language:

Courier 1B - Orbit

View from above orbital plane
View from above orbital plane
View from above satellite
View from above satellite

Ground track
Ground track

The orbit data is extracted from the following two-line orbital elements,

1    58U 60013A   19315.83203535 +.00000089 +00000-0 +93784-5 0  9994
2    58 028.3258 123.7476 0164922 059.2520 302.4155 13.46319534909131
Epoch (UTC): 11 November 2019 19:58:07
Eccentricity: 0.0164922
inclination: 28.3258°
perigee height: 963 km
apogee height: 1209 km
right ascension of ascending node: 123.7476°
argument of perigee: 59.2520°
revolutions per day: 13.46319534
mean anomaly at epoch: 302.4155°
orbit number at epoch: 90913

The dashed part of the orbit path shows where the satellite is in the earth's shadow,  

DLR